Location: Asheville, NC
(35.6000°N, 82.5500°W)
Time: 00:34:55
(UTC-04:00)

ITAMSAT 1 - Pass Details

Date: 13 March 2018
Orbit: 784 x 796 km, 98.9° (Epoch: 18 June)

Event Time Altitude Azimuth Distance (km) Brightness Sun altitude
Rises 06:12:55 0° 3° (N) 3,302 11.1 -19.2°
Reaches altitude 10° 06:15:24 10° 355° (N) 2,367 10.2 -18.7°
Maximum altitude 06:20:07 36° 290° (WNW) 1,243 8.2 -17.8°
Enters shadow 06:21:36 30° 257° (WSW) 1,391 8.3 -17.5°
